Regional Weather Roundup
Issued by NWS

Home | Current Version | Previous Version | Graphics & Text | Print | Product List | Glossary On
Versions: 1 2 3 4 5 6 7 8 9 10 11 12 13 14 15 16 17 18 19 20 21 22 23 24 25 26 27 28 29 30 31 32 33 34 35 36 37 38 39 40 41 42 43 44 45 46 47 48 49 50
000
ASUS43 KLOT 072308
RWRIL

ILLINOIS REGIONAL WEATHER ROUNDUP
NATIONAL WEATHER SERVICE CHICAGO/ROMEOVILLE IL
500 PM CST SUN FEB 07 2016

NOTE: "FAIR" INDICATES FEW OR NO CLOUDS BELOW 12,000 FEET WITH NO
SIGNIFICANT WEATHER AND/OR OBSTRUCTIONS TO VISIBILITY.

* THESE STATIONS ARE NOT UNDER NWS QUALITY CONTROL. THEY ALSO MAY NOT
  REPORT WEATHER SUCH AS PRECIPITATION OR FOG.

ILZ001-002-007-009-015-016-024-080000-
NORTHWEST ILLINOIS

CITY           SKY/WX    TMP DP  RH WIND       PRES   REMARKS
MOLINE         PTCLDY    41  27  57 W13       29.80S
STERLING*      CLEAR     39  28  65 W17       29.77R WCI  30
SAVANNA*       CLEAR     40  29  64 W10G17    29.78S
$$

ILZ003-004-008-010-011-017-018-080000-
NORTH CENTRAL ILLINOIS

CITY           SKY/WX    TMP DP  RH WIND       PRES   REMARKS
ROCKFORD       PTCLDY    40  27  59 W16G22    29.77R
FREEPORT*      CLEAR     38  28  66 W13       29.76S WCI  30
ROCHELLE*      CLEAR     38  29  69 W15       29.78R WCI  30
DE KALB*       CLEAR     40  31  69 W14G20    29.76R
$$

ILZ005-006-012>014-019>023-080000-
NORTHEAST ILLINOIS

CITY           SKY/WX    TMP DP  RH WIND       PRES   REMARKS
CHICAGO-OHARE  PTCLDY    42  33  70 SW14      29.73R
CHICAGO-MIDWAY PTCLDY    43  31  62 SW14      29.75R
AURORA         CLEAR     41  31  67 W15       29.76R
LANSING*       MOCLDY    42  32  68 SW12G22   29.76S
JOLIET*        PTCLDY    44  34  67 W7        29.78R
WAUKEGAN       CLEAR     41  33  73 SW12G18   29.70R
DUPAGE AIRPORT CLEAR     41  30  65 W14G24    29.75R
KANKAKEE*      CLOUDY    42  33  70 SW8       29.80S
WHEELING       PTCLDY    42  33  70 SW10      29.74R
MORRIS*          N/A     42  32  67 W13       29.76R
ROMEOVILLE*    PTCLDY    42  32  68 W12G17    29.77R
NORTHERLY ISL    N/A     43  31  63 W14         N/A
$$

LMZ740>746-080000-
SOUTHERN LAKE MICHIGAN

STATION/POSITION SKY/WX   TEMP    WIND        PRES    VSBY  WAVE
                          AIR SEA DIR/SP/G                  HT/PER
                          (F)     (DEG/KT/KT) (MB)    (MI)  (FT/S)
HARRISON CRIB              44     230/ 19/ 22   N/A
BURNHAM HARBOR             43     250/  7/ 15   N/A
CALUMET HARBOR             43     210/ 11/ 15 1006.6R
BURNS HARBOR               44     230/ 13/ 17 1008.1R
MICHIGAN CITY              42     210/ 16/ 19   N/A
$$

ILZ025>027-034>036-040-047-049-050-058-095>099-080000-
WEST-CENTRAL ILLINOIS

CITY           SKY/WX    TMP DP  RH WIND       PRES   REMARKS
QUINCY         MOCLDY    47  23  38 W9        29.86S
GALESBURG*     CLEAR     42  29  62 W14       29.83R
MACOMB*        CLEAR     44  30  57 NW9       29.86S
JACKSONVILLE*  PTCLDY    47  33  56 W9        29.86S
PITTSFIELD*    PTCLDY    48  26  41 W9        29.88S
$$

ILZ028>032-037-038-041>044-048-051>054-059>061-080000-
CENTRAL ILLINOIS

CITY           SKY/WX    TMP DP  RH WIND       PRES   REMARKS
PONTIAC        CLEAR     44  35  71 W10       29.80S
BLOOMINGTON    CLEAR     44  33  65 W10       29.83R
DECATUR        PTCLDY    46  31  55 W12       29.85S
PEORIA         CLEAR     45  27  49 W10       29.83R
LACON*         CLEAR     44  28  53 W8        29.80S
LINCOLN*       PTCLDY    46  33  62 CALM      29.84S
SPRINGFIELD    CLEAR     46  33  60 W9        29.85F
TAYLORVILLE    CLEAR     43  32  65 W10       29.87S
$$

ILZ033-039-045-046-055>057-062-063-080000-
EAST-CENTRAL ILLINOIS

CITY           SKY/WX    TMP DP  RH WIND       PRES   REMARKS
CHAMPAIGN      MOCLDY    44  35  70 W15       29.84R
RANTOUL*       CLOUDY    46  36  70 W14       29.82S
MATTOON        CLEAR     46  31  55 W16G24    29.84S
PARIS*         PTCLDY    45  36  71 W15       29.85R
$$

ILZ079-100>102-080000-
SOUTHWEST ILLINOIS

CITY           SKY/WX    TMP DP  RH WIND       PRES   REMARKS
ALTON          PTCLDY    46  30  53 W14       29.90S
BELLEVILLE     CLEAR     52  28  40 W14       29.88S
CAHOKIA*       CLEAR     51  27  39 W8        29.90S
SPARTA*        MOCLDY    52  29  40 W12G20    29.91S
$$

ILZ064>066-069>071-074>076-080>082-084>086-088>090-092>094-080000-
SOUTH-CENTRAL ILLINOIS

CITY           SKY/WX    TMP DP  RH WIND       PRES   REMARKS
CARBONDALE     MOCLDY    54  27  35 W10       29.90S
CAIRO*         CLOUDY    52  37  55 S13G20    29.92F
EFFINGHAM*     PTCLDY    48  34  57 W14       29.88S
MARION         MOCLDY    55  30  38 SW14      29.90F
MT. VERNON     PTCLDY    54  28  37 W7        29.88S
CENTRALIA*     PTCLDY    51  34  51 W14G20    29.88S
SALEM*         PTCLDY    51  32  49 W9        29.88S
METROPOLIS*    MOCLDY    54  33  45 SW15G24   29.92F
$$

ILZ067-068-072-073-078-083-087-091-080000-
SOUTHEAST ILLINOIS

CITY           SKY/WX    TMP DP  RH WIND       PRES   REMARKS
LAWRENCEVILLE  CLOUDY    52  29  41 SW12      29.86F
FLORA*         PTCLDY    53  32  43 W15G21    29.87S
FAIRFIELD*     CLOUDY    53  32  45 SW9       29.86S
HARRISBURG*    CLOUDY    53  33  46 SW8       29.89F
ROBINSON*      PTCLDY    50  31  47 SW10      29.86S
CARMI*         CLOUDY    52  32  45 SW13      29.88F
$$

ABBREVIATIONS USED IN REMARKS
   TC - TEMPERATURE IN CELSIUS
  WCI - WIND CHILL INDEX
   HX - HEAT INDEX
  VSB - VISIBILITY
$$




USA.gov is the U.S. government's official web portal to all federal, state and local government web resources and services.